This is the latest recevied weather packets stored in our database for station/object KG7FOQ-13. If no packets are shown the sender has not sent any weather packets the latest 10 day(s).
| Time | Temp. | Humidity | Pressure | Rain* | Wind** | Luminosity | Snow |
|---|---|---|---|---|---|---|---|
| 1777933535 | 23.33° C | 22% | 1004.8 hPa | 0 mm | - | - | - |
| 1777933235 | 23.89° C | 20% | 1004.8 hPa | 0 mm | - | - | - |
| 1777932634 | 23.33° C | 20% | 1005.2 hPa | 0 mm | - | - | - |
| 1777932333 | 23.33° C | 22% | 1005.2 hPa | 0 mm | - | - | - |
| 1777932032 | 23.33° C | 24% | 1005.2 hPa | 0 mm | - | - | - |
| 1777931732 | 23.33° C | 22% | 1005.3 hPa | 0 mm | - | - | - |
| 1777931431 | 23.33° C | 26% | 1005.4 hPa | 0 mm | - | - | - |
| 1777931180 | 23.33° C | 27% | 1005.4 hPa | 0 mm | - | - | - |
| 1777931131 | 23.33° C | 27% | 1005.4 hPa | 0 mm | - | - | - |
| 1777930829 | 23.33° C | 26% | 1005.5 hPa | 0 mm | - | - | - |
| 1777930529 | 22.78° C | 24% | 1005.6 hPa | 0 mm | - | - | - |
| 1777930228 | 22.78° C | 28% | 1005.6 hPa | 0 mm | - | - | - |
| 1777929627 | 22.22° C | 27% | 1006 hPa | 0 mm | - | - | - |
| 1777929326 | 22.22° C | 28% | 1006 hPa | 0 mm | - | - | - |
| 1777929025 | 22.78° C | 27% | 1006.1 hPa | 0 mm | - | - | - |
| 1777928725 | 22.22° C | 30% | 1006.1 hPa | 0 mm | - | - | - |
| 1777928424 | 22.78° C | 30% | 1006.2 hPa | 0 mm | - | - | - |
| 1777928124 | 22.78° C | 30% | 1006.2 hPa | 0 mm | - | - | - |
| 1777927823 | 21.67° C | 31% | 1006.3 hPa | 0 mm | - | - | - |
| 1777927523 | 22.22° C | 32% | 1006.3 hPa | 0 mm | - | - | - |
| 1777927219 | 22.22° C | 29% | 1006.5 hPa | 0 mm | - | - | - |
| 1777926919 | 21.67° C | 32% | 1006.5 hPa | 0 mm | - | - | - |
| 1777926618 | 22.22° C | 33% | 1006.5 hPa | 0 mm | - | - | - |
| 1777926318 | 22.22° C | 34% | 1006.5 hPa | 0 mm | - | - | - |
| 1777926017 | 22.22° C | 32% | 1006.6 hPa | 0 mm | - | - | - |
* Rain latest hour (hover to see other rain measurements)
** Current wind speed in m/s (hover to see current wind gust speed)